Vorticity
8 6 9 7 6 7 14 17 14 8 8 11 14 9 4 8 15 15 14 13 13 17
18 5 10 8 8 4 3 7 10 15 16 9 12 12 13 15 11 10 12 16 13 9
10 22 21 15 17 23 15 11 3 6 7 18 9 13 14 10 18 24 23 23 23 14
8 9 6 4 2 -2 -6 30 23 18 19 6 15 21 33 12 11 -2 13 4 15 20
8 6 6 5 5 4 17 12 26 18 12 18 10 10 -4 -1 14 5 26 9 -1 30
8 7 6 5 6 5 8 9 4 17 14 15 10 15 13 6 15 12 -1 -6 25 0
10 10 9 8 7 6 8 9 10 9 -3 3 8 18 16 2 6 20 25 15 -3 -4
7 8 9 9 9 8 8 9 11 11 10 8 11 -6 2 7 2 -5 23 19 19 20
8 8 9 10 10 9 9 8 11 12 13 14 16 16 14 10 11 18 8 16 13 22
8 7 7 9 9 10 11 10 10 11 13 12 13 14 16 19 14 11 9 9 10 11
8 7 7 7 8 9 9 11 12 11 12 12 11 12 11 9 9 11 11 9 9 9
8 7 6 6 7 8 9 10 10 11 12 12 12 12 12 10 9 8 7 8 11 10
8 7 6 6 7 8 10 10 10 11 11 11 11 11 12 11 13 12 10 10 10 10
8 7 6 6 7 7 7 8 9 9 11 12 12 11 12 13 11 11 11 10 10 10
Height
3036 3033 3030 3027 3025 3022 3020 3019 3018 3016 3015 3013 3012 3011 3010 3010 3009 3009 3010 3010 3011 3012
3031 3030 3027 3024 3021 3018 3016 3014 3011 3009 3007 3006 3006 3004 3004 3002 3001 3001 3000 3000 3001 3002
3031 3026 3023 3020 3017 3013 3010 3007 3005 3003 3001 2999 2999 2998 2996 2995 2994 2992 2991 2990 2991 2992
3028 3024 3021 3018 3013 3009 3006 3002 2998 2996 2995 2994 2992 2991 2989 2988 2988 2986 2985 2984 2984 2984
3024 3021 3018 3014 3010 3006 3002 2998 2993 2990 2989 2988 2987 2986 2984 2984 2982 2981 2979 2979 2979 2978
3020 3016 3013 3010 3007 3003 2999 2996 2993 2989 2984 2982 2981 2980 2978 2976 2976 2975 2974 2973 2971 2972
3018 3014 3010 3007 3003 2999 2996 2993 2989 2986 2983 2980 2977 2972 2971 2970 2969 2967 2965 2964 2964 2963
3014 3011 3008 3004 3000 2997 2993 2989 2986 2983 2979 2976 2973 2971 2968 2964 2962 2960 2957 2956 2955 2955
3011 3008 3004 3001 2998 2994 2991 2987 2984 2980 2976 2972 2970 2967 2963 2960 2957 2954 2952 2949 2948 2948
3006 3003 3000 2997 2994 2990 2986 2982 2979 2975 2972 2969 2966 2963 2961 2958 2954 2951 2948 2944 2943 2942
3003 3000 2997 2994 2990 2987 2983 2979 2975 2971 2968 2964 2961 2959 2957 2954 2952 2951 2948 2944 2941 2938
2998 2996 2993 2990 2986 2983 2979 2975 2971 2967 2964 2961 2957 2955 2952 2950 2947 2945 2942 2941 2940 2937
2992 2990 2988 2985 2982 2979 2975 2971 2967 2963 2959 2956 2953 2950 2947 2945 2942 2939 2937 2934 2932 2930
2987 2985 2983 2980 2977 2974 2970 2967 2963 2959 2955 2952 2949 2946 2943 2940 2938 2935 2932 2929 2927 2924